Terminal Aerodrome Forecast
Issued by NWS Wilmington, NC

Home | Current Version | Previous Version | Text Only | Print | Product List | Glossary On
Versions: 1 2 3 4 5 6 7 8 9 10 11 12 13 14 15 16 17 18 19
000
FTUS42 KILM 010918 AAA
TAFMYR
TAF AMD
KMYR 010918Z 0109/0206 29006KT 4SM BR SKC
      TEMPO 0110/0111 1SM BR BKN004
     FM011300 02004KT P6SM SCT015 BKN040
     FM011600 17008KT P6SM FEW050 SCT250
     FM020000 VRB04KT P6SM FEW250
      AMD LTD TO CLD VIS AND WIND TIL 011100=

USA.gov is the U.S. government's official web portal to all federal, state and local government web resources and services.